�������l�o���
Date,Time,MP-1(��Sv/h),MP-2(��Sv/h),MP-3(��Sv/h),MP-4(��Sv/h),MP-5(��Sv/h),MP-6(��Sv/h),MP-7(��Sv/h),MP-8(��Sv/h),����,����(m/s),���J
2021/08/22,00:00,0.589,0.875,0.554,1.064,0.748,0.361,0.623,0.584,�k��,1.1,�L
2021/08/22,00:10,0.589,0.878,0.554,1.066,0.747,0.362,0.624,0.583,-,CALM,��
2021/08/22,00:20,0.588,0.876,0.552,1.065,0.745,0.361,0.622,0.583,�k��,0.9,�L
2021/08/22,00:30,0.588,0.877,0.555,1.064,0.750,0.362,0.624,0.584,�k��,1.5,�L
2021/08/22,00:40,0.590,0.878,0.554,1.062,0.746,0.361,0.624,0.583,�k��,1.5,��
2021/08/22,00:50,0.588,0.878,0.552,1.062,0.748,0.361,0.624,0.584,�k��,1.1,��
2021/08/22,01:00,0.589,0.874,0.555,1.064,0.747,0.362,0.623,0.583,�k��,2.3,�L
2021/08/22,01:10,0.590,0.877,0.554,1.063,0.748,0.362,0.624,0.583,�k��,1.7,��
2021/08/22,01:20,0.587,0.875,0.553,1.062,0.747,0.362,0.624,0.584,�k,0.6,��
2021/08/22,01:30,0.590,0.879,0.553,1.064,0.748,0.363,0.622,0.583,�k,1.2,�L
2021/08/22,01:40,0.587,0.876,0.554,1.066,0.748,0.362,0.624,0.584,�k��,0.9,��
2021/08/22,01:50,0.590,0.877,0.552,1.064,0.748,0.361,0.621,0.584,�k��,1.1,��
2021/08/22,02:00,0.590,0.877,0.553,1.065,0.749,0.363,0.624,0.584,�k�k��,2.0,��
2021/08/22,02:10,0.590,0.876,0.553,1.064,0.748,0.362,0.626,0.584,�k,3.1,��
2021/08/22,02:20,0.590,0.878,0.553,1.066,0.747,0.363,0.625,0.584,�k,2.5,��
2021/08/22,02:30,0.589,0.879,0.555,1.064,0.747,0.362,0.624,0.583,�k��,1.2,��
2021/08/22,02:40,0.590,0.877,0.554,1.063,0.748,0.362,0.623,0.584,�k,1.7,��
2021/08/22,02:50,0.591,0.876,0.553,1.064,0.748,0.362,0.624,0.584,�k�k��,2.3,��
2021/08/22,03:00,0.590,0.877,0.554,1.064,0.748,0.361,0.623,0.585,�k��,1.4,��
2021/08/22,03:10,0.589,0.876,0.554,1.065,0.747,0.363,0.623,0.583,�k�k��,1.2,��
2021/08/22,03:20,0.589,0.876,0.553,1.063,0.747,0.362,0.623,0.584,�k�k��,2.6,�L
2021/08/22,03:30,0.589,0.878,0.553,1.066,0.749,0.362,0.623,0.585,�k�k��,2.5,�L
2021/08/22,03:40,0.589,0.878,0.554,1.066,0.749,0.363,0.623,0.584,�k�k��,2.5,�L
2021/08/22,03:50,0.589,0.880,0.553,1.065,0.748,0.363,0.625,0.585,�k�k��,2.6,�L
2021/08/22,04:00,0.591,0.879,0.554,1.063,0.748,0.362,0.624,0.585,�k�k��,2.6,�L
2021/08/22,04:10,0.590,0.878,0.554,1.066,0.748,0.362,0.626,0.585,�k�k��,2.5,�L
2021/08/22,04:20,0.589,0.880,0.552,1.063,0.748,0.362,0.624,0.584,�k�k��,2.5,�L
2021/08/22,04:30,0.589,0.877,0.555,1.067,0.750,0.363,0.625,0.584,�k,2.3,�L
2021/08/22,04:40,0.589,0.877,0.552,1.064,0.748,0.364,0.625,0.583,�k�k��,2.8,�L
2021/08/22,04:50,0.590,0.877,0.554,1.064,0.748,0.362,0.622,0.585,�k,2.5,�L
2021/08/22,05:00,0.588,0.878,0.553,1.064,0.750,0.363,0.625,0.584,�k�k��,2.0,�L
2021/08/22,05:10,0.588,0.879,0.554,1.063,0.747,0.362,0.624,0.586,�k�k��,1.4,�L
2021/08/22,05:20,0.588,0.877,0.553,1.066,0.747,0.363,0.623,0.583,�k�k��,1.5,�L
2021/08/22,05:30,0.589,0.878,0.554,1.065,0.748,0.363,0.624,0.583,�k�k��,1.7,�L
2021/08/22,05:40,0.589,0.876,0.555,1.064,0.748,0.361,0.625,0.583,�k,1.7,�L
2021/08/22,05:50,0.589,0.877,0.554,1.064,0.749,0.364,0.623,0.583,�k�k��,1.7,�L
2021/08/22,06:00,0.589,0.876,0.555,1.063,0.747,0.363,0.626,0.586,�k�k��,1.4,�L
2021/08/22,06:10,0.589,0.875,0.554,1.064,0.746,0.364,0.623,0.583,���k��,1.5,�L
2021/08/22,06:20,0.590,0.875,0.555,1.062,0.747,0.363,0.624,0.584,�k�k��,1.5,�L
2021/08/22,06:30,0.589,0.873,0.553,1.064,0.747,0.364,0.624,0.584,�k�k��,1.5,�L
2021/08/22,06:40,0.589,0.875,0.554,1.061,0.747,0.363,0.624,0.583,�k��,1.2,�L
2021/08/22,06:50,0.589,0.874,0.554,1.060,0.745,0.364,0.623,0.585,�k�k��,1.7,�L
2021/08/22,07:00,0.588,0.872,0.553,1.061,0.746,0.363,0.624,0.584,�k��,1.9,�L
2021/08/22,07:10,0.588,0.873,0.553,1.060,0.747,0.363,0.624,0.582,�k�k��,1.7,�L
2021/08/22,07:20,0.587,0.873,0.554,1.061,0.747,0.363,0.624,0.583,�k��,1.5,�L
2021/08/22,07:30,0.589,0.876,0.552,1.061,0.745,0.363,0.622,0.582,�k�k��,1.9,�L
2021/08/22,07:40,0.590,0.876,0.554,1.061,0.744,0.363,0.623,0.581,�k��,2.2,�L
2021/08/22,07:50,0.588,0.876,0.553,1.063,0.746,0.362,0.623,0.582,�k�k��,1.5,�L
2021/08/22,08:00,0.589,0.874,0.553,1.062,0.745,0.363,0.624,0.582,�k,2.0,�L
2021/08/22,08:10,0.588,0.872,0.554,1.062,0.744,0.362,0.623,0.582,�k,1.2,��
2021/08/22,08:20,0.587,0.874,0.550,1.060,0.746,0.363,0.623,0.582,�k�k��,0.6,��
2021/08/22,08:30,0.588,0.874,0.551,1.060,0.746,0.362,0.622,0.582,�k,0.9,�L
2021/08/22,08:40,0.587,0.872,0.551,1.060,0.744,0.363,0.624,0.583,�k�k��,0.9,�L
2021/08/22,08:50,0.587,0.873,0.552,1.061,0.743,0.359,0.622,0.583,�k��,1.2,��
2021/08/22,09:00,0.585,0.871,0.552,1.058,0.744,0.361,0.622,0.583,�k��,1.5,��
2021/08/22,09:10,0.587,0.872,0.551,1.061,0.743,0.359,0.622,0.582,�k��,1.4,��
2021/08/22,09:20,0.584,0.871,0.550,1.059,0.745,0.359,0.620,0.581,�k��,1.2,�L
2021/08/22,09:30,0.585,0.873,0.550,1.059,0.742,0.358,0.622,0.581,�k��,1.5,�L
2021/08/22,09:40,0.585,0.873,0.551,1.059,0.742,0.360,0.622,0.580,�k��,1.5,��
2021/08/22,09:50,0.585,0.873,0.550,1.058,0.742,0.360,0.620,0.581,�k��,1.5,��
2021/08/22,10:00,0.585,0.872,0.550,1.063,0.744,0.361,0.621,0.582,�k��,1.4,�L
2021/08/22,10:10,0.587,0.873,0.549,1.059,0.743,0.359,0.621,0.579,���k��,1.2,�L
2021/08/22,10:20,0.584,0.871,0.550,1.061,0.744,0.360,0.621,0.582,�k��,1.2,�L
2021/08/22,10:30,0.586,0.874,0.550,1.060,0.743,0.361,0.622,0.582,�k��,1.2,�L
2021/08/22,10:40,0.586,0.871,0.549,1.058,0.743,0.360,0.621,0.582,��,0.9,�L
2021/08/22,10:50,0.586,0.873,0.549,1.061,0.745,0.359,0.621,0.581,��,0.9,�L
2021/08/22,11:00,0.585,0.873,0.549,1.060,0.745,0.360,0.623,0.581,���k��,0.9,�L
2021/08/22,11:10,0.586,0.873,0.552,1.061,0.743,0.359,0.622,0.581,��,1.1,��
2021/08/22,11:20,0.587,0.872,0.551,1.060,0.746,0.360,0.623,0.580,���k��,1.2,��
2021/08/22,11:30,0.587,0.873,0.551,1.060,0.744,0.360,0.622,0.581,���k��,0.8,��
2021/08/22,11:40,0.587,0.875,0.552,1.060,0.745,0.360,0.623,0.581,�k��,0.9,��
2021/08/22,11:50,0.586,0.871,0.552,1.058,0.745,0.360,0.623,0.582,��,1.2,��
2021/08/22,12:00,0.589,0.874,0.551,1.061,0.746,0.360,0.623,0.581,���쓌,1.1,��
2021/08/22,12:10,0.587,0.873,0.551,1.060,0.746,0.361,0.622,0.582,���쓌,1.4,��
2021/08/22,12:20,0.586,0.875,0.550,1.060,0.745,0.362,0.624,0.583,���쓌,1.5,��
2021/08/22,12:30,0.589,0.873,0.550,1.059,0.745,0.360,0.623,0.582,���쓌,2.0,��
2021/08/22,12:40,0.588,0.875,0.552,1.060,0.746,0.361,0.623,0.581,��,1.7,��
2021/08/22,12:50,0.588,0.875,0.553,1.060,0.745,0.360,0.623,0.582,���k��,1.7,��
2021/08/22,13:00,0.589,0.876,0.552,1.060,0.748,0.361,0.624,0.583,���k��,2.0,��
2021/08/22,13:10,0.590,0.879,0.552,1.060,0.747,0.361,0.624,0.583,���k��,2.5,��
2021/08/22,13:20,0.591,0.876,0.553,1.061,0.747,0.361,0.625,0.582,���k��,2.6,��
2021/08/22,13:30,0.590,0.880,0.552,1.061,0.748,0.361,0.624,0.583,���k��,2.3,��
2021/08/22,13:40,0.591,0.876,0.552,1.059,0.746,0.363,0.623,0.583,���k��,2.6,��
2021/08/22,13:50,0.590,0.877,0.552,1.061,0.748,0.361,0.625,0.582,���k��,2.2,��
2021/08/22,14:00,0.589,0.878,0.553,1.061,0.749,0.361,0.624,0.582,���k��,2.0,��
2021/08/22,14:10,0.590,0.879,0.553,1.062,0.747,0.361,0.624,0.582,�k��,2.3,��
2021/08/22,14:20,0.591,0.877,0.553,1.062,0.749,0.361,0.624,0.583,�k�k��,2.0,��
2021/08/22,14:30,0.592,0.881,0.554,1.061,0.750,0.360,0.625,0.584,�k��,2.0,��
2021/08/22,14:40,0.590,0.881,0.555,1.064,0.750,0.360,0.624,0.583,�k�k��,1.9,��
2021/08/22,14:50,0.591,0.881,0.556,1.062,0.750,0.361,0.623,0.583,�k�k��,1.7,��
2021/08/22,15:00,0.591,0.880,0.555,1.063,0.748,0.360,0.624,0.583,�k�k��,2.9,��
2021/08/22,15:10,0.592,0.880,0.554,1.063,0.751,0.361,0.625,0.582,�k�k��,2.3,��
2021/08/22,15:20,0.592,0.880,0.554,1.066,0.752,0.362,0.624,0.583,�k�k��,2.9,��
2021/08/22,15:30,0.592,0.882,0.553,1.064,0.748,0.361,0.626,0.582,�k�k��,2.5,��
2021/08/22,15:40,0.594,0.882,0.556,1.064,0.753,0.360,0.625,0.582,�k�k��,2.0,��
2021/08/22,15:50,0.593,0.881,0.557,1.064,0.752,0.362,0.624,0.582,�k�k��,2.0,��
2021/08/22,16:00,0.593,0.883,0.556,1.066,0.752,0.362,0.624,0.584,�k�k��,2.2,��
2021/08/22,16:10,0.592,0.882,0.556,1.066,0.751,0.361,0.624,0.584,�k�k��,2.5,��
2021/08/22,16:20,0.593,0.882,0.557,1.066,0.752,0.362,0.624,0.583,�k�k��,2.3,��
2021/08/22,16:30,0.593,0.883,0.556,1.068,0.752,0.362,0.625,0.582,�k�k��,2.0,��
2021/08/22,16:40,0.592,0.883,0.557,1.065,0.751,0.363,0.624,0.584,�k��,1.7,��
2021/08/22,16:50,0.593,0.883,0.557,1.065,0.750,0.364,0.624,0.584,�k�k��,1.5,��
2021/08/22,17:00,0.593,0.883,0.558,1.066,0.750,0.362,0.627,0.585,�k��,1.7,��
2021/08/22,17:10,0.593,0.882,0.556,1.065,0.751,0.363,0.626,0.585,�k��,1.2,��
2021/08/22,17:20,0.593,0.883,0.557,1.064,0.751,0.363,0.626,0.585,-,CALM,��
2021/08/22,17:30,0.593,0.881,0.556,1.066,0.750,0.363,0.627,0.585,�k�k��,0.8,��
2021/08/22,17:40,0.593,0.882,0.554,1.065,0.750,0.363,0.624,0.586,�k,0.8,��
2021/08/22,17:50,0.594,0.883,0.557,1.066,0.751,0.362,0.626,0.586,�k��,0.8,��
2021/08/22,18:00,0.595,0.882,0.555,1.066,0.752,0.362,0.627,0.586,��,0.8,��
2021/08/22,18:10,0.593,0.883,0.556,1.066,0.752,0.363,0.626,0.586,-,CALM,��
2021/08/22,18:20,0.595,0.884,0.558,1.069,0.751,0.365,0.627,0.586,-,CALM,��
2021/08/22,18:30,0.594,0.883,0.556,1.066,0.752,0.362,0.626,0.587,-,CALM,��
2021/08/22,18:40,0.593,0.883,0.556,1.068,0.752,0.362,0.627,0.587,-,CALM,��
2021/08/22,18:50,0.593,0.884,0.557,1.068,0.752,0.362,0.628,0.585,��,0.6,��
2021/08/22,19:00,0.594,0.881,0.556,1.066,0.752,0.363,0.627,0.587,-,CALM,��
2021/08/22,19:10,0.594,0.883,0.556,1.067,0.752,0.364,0.626,0.586,-,CALM,��
2021/08/22,19:20,0.594,0.884,0.556,1.064,0.752,0.363,0.628,0.588,��쓌,1.4,��
2021/08/22,19:30,0.595,0.884,0.557,1.066,0.749,0.364,0.627,0.586,��쓌,0.9,��
2021/08/22,19:40,0.592,0.883,0.555,1.067,0.750,0.363,0.628,0.586,��쓌,1.5,��
2021/08/22,19:50,0.593,0.884,0.555,1.066,0.751,0.363,0.626,0.586,��쐼,1.7,��
2021/08/22,20:00,0.593,0.885,0.557,1.066,0.751,0.363,0.628,0.585,��쓌,1.5,��
2021/08/22,20:10,0.593,0.882,0.559,1.066,0.751,0.363,0.626,0.587,��쓌,1.1,��
2021/08/22,20:20,0.591,0.882,0.557,1.068,0.750,0.362,0.627,0.586,��쓌,0.8,��
2021/08/22,20:30,0.590,0.886,0.558,1.065,0.752,0.363,0.627,0.585,��,1.2,��
2021/08/22,20:40,0.593,0.883,0.558,1.065,0.751,0.363,0.626,0.585,��,1.2,��
2021/08/22,20:50,0.592,0.882,0.557,1.067,0.752,0.363,0.627,0.586,��쓌,2.3,��
2021/08/22,21:00,0.591,0.885,0.557,1.068,0.753,0.363,0.626,0.586,��쓌,1.5,��
2021/08/22,21:10,0.592,0.884,0.558,1.067,0.751,0.364,0.626,0.585,��,1.7,��
2021/08/22,21:20,0.594,0.884,0.557,1.066,0.750,0.363,0.627,0.584,��,2.6,��
2021/08/22,21:30,0.593,0.884,0.556,1.066,0.751,0.364,0.627,0.586,��,1.7,��
2021/08/22,21:40,0.593,0.885,0.558,1.065,0.751,0.362,0.625,0.584,��,1.2,��
2021/08/22,21:50,0.591,0.885,0.556,1.067,0.755,0.362,0.626,0.587,��쓌,0.6,��
2021/08/22,22:00,0.593,0.884,0.555,1.069,0.753,0.364,0.627,0.585,-,CALM,��
2021/08/22,22:10,0.592,0.884,0.558,1.067,0.752,0.363,0.627,0.585,-,CALM,��
2021/08/22,22:20,0.592,0.882,0.557,1.066,0.751,0.362,0.626,0.586,��쐼,1.1,��
2021/08/22,22:30,0.594,0.883,0.557,1.067,0.750,0.364,0.627,0.585,��쓌,0.6,��
2021/08/22,22:40,0.591,0.884,0.557,1.069,0.752,0.363,0.627,0.588,��쓌,1.7,��
2021/08/22,22:50,0.593,0.886,0.556,1.066,0.753,0.361,0.627,0.585,��쓌,1.2,��
2021/08/22,23:00,0.591,0.885,0.556,1.067,0.752,0.364,0.628,0.587,��쓌,2.0,��
2021/08/22,23:10,0.592,0.882,0.558,1.068,0.752,0.363,0.628,0.585,��,0.6,��
2021/08/22,23:20,0.592,0.885,0.557,1.063,0.753,0.364,0.627,0.586,��,1.2,��
2021/08/22,23:30,0.593,0.884,0.557,1.068,0.751,0.362,0.627,0.586,��,0.6,��
2021/08/22,23:40,0.592,0.886,0.558,1.066,0.753,0.363,0.626,0.586,-,CALM,��
2021/08/22,23:50,0.593,0.885,0.557,1.069,0.752,0.365,0.626,0.586,-,CALM,��
